sat.trackr.live / text

‹ back to catalog

STARLINK-31985

NORAD 60036 · 2024-111W

PAYLOAD ACTIVE UNKNOWN

§ Identity

Operator
Country
US
Launch date
2024-06-08
Launch site
AFETR
Launch vehicle
Mass (kg)
RCS (m²)

Purposes: comms

External: N2YO · Heavens-Above · Gunter

§ Orbital elements

Epoch: 2026-05-25T02:50:38.178816Z

Period
94.10 min
Inclination
53.1605°
Eccentricity
0.0000969
Mean motion
15.30219405 rev/d
Perigee alt
474.5 km
Apogee alt
475.8 km
Semi-major
6,853.3 km
B*
-1.7309e-4
RAAN
80.7189°
Arg perigee
78.9249°
Mean anomaly
281.1861°
Rev number
11,067

§ Raw data

STARLINK-319851 60036U 24111W   26145.11849744 -.00005485  00000+0 -17309-3 0  99962 60036  53.1605  80.7189 0000969  78.9249 281.1861 15.30219405110675

JSON: /api/v1/satellites/60036 · /tle

For live sub-satellite position, see the globe view (requires WebGL).

§ Visibility from observer

Set your observer location to see the next 7 days of passes ≥ 10°. The values pass through the URL so the page stays shareable.

No JS? Fill the form by hand. The geolocation button needs JavaScript.